Location: Wildlife_Club
(35.6000°N, 81.4330°W)
Time: 00:58:48
(UTC-04:00)

Iridium 56 - Visible Passes

Search period start: 30 July 2014 00:00
Search period end: 09 August 2014 00:00
Orbit: 776 x 779 km, 86.4° (Epoch: 29 July)

Date Brightness Start Highest point End Pass type
(mag) Time Alt. Az. Time Alt. Az. Time Alt. Az.
30 Jul 5.6 20:59:05 10° N 21:04:14 59° E 21:09:21 10° SSE visible
30 Jul 8.3 22:42:03 10° NW 22:44:20 13° W 22:46:36 10° WSW visible
31 Jul 7.7 22:06:56 10° NNW 22:11:07 25° W 22:15:17 10° SW visible
01 Aug 6.6 21:32:48 10° NNW 21:37:47 48° W 21:42:45 10° SSW visible
02 Aug 5.6 20:59:07 10° N 21:04:21 88° E 21:09:32 10° S visible
03 Aug 8.2 22:07:47 10° NW 22:11:02 17° W 22:14:18 10° WSW visible
04 Aug 7.4 21:33:12 10° NNW 21:37:47 32° W 21:42:21 10° SSW visible
05 Aug 6.1 20:59:16 10° N 21:04:24 62° W 21:09:31 10° SSW visible
06 Aug 8.6 22:09:30 10° WNW 22:10:55 11° WNW 22:12:20 10° W visible
07 Aug 8.1 21:33:49 10° NNW 21:37:44 22° W 21:41:38 10° SW visible
08 Aug 7.0 20:59:33 10° NNW 21:04:25 41° W 21:09:16 10° SSW visible
